Location: Bush Observatory
(40.2653°N, 94.3194°W)
Time: 01:20:43
(UTC-05:00)

Daily predictions for brighter satellites

Satellite Brightness Start Highest point End
(mag) Time Altitude Azimuth Time Altitude Azimuth Time Altitude Azimuth
Cosmos 2322 Rocket 3.9 03:42:37 29° NE 03:42:37 29° NE 03:45:36 10° NE
SL-16 R/B 3.8 03:45:38 31° NE 03:45:38 31° NE 03:48:52 10° NE
Cosmos 2360 Rocket 3.6 04:12:49 31° ESE 04:13:09 31° ESE 04:18:04 10° NE
Cosmos 1980 Rocket 3.8 04:16:20 25° NNW 04:16:20 25° NNW 04:19:05 10° N
CENTAUR R/B 3.0 04:16:52 51° N 04:16:52 51° N 04:22:27 10° NNE
USA 215 3.7 04:09:38 10° ESE 04:16:02 58° NE 04:21:05 17° NW
CZ-2D R/B 3.6 04:11:43 10° N 04:14:34 31° N 04:14:34 31° N
ADEOS Rocket 3.6 04:15:11 10° N 04:18:50 42° N 04:18:50 42° N
ARIANE 5 R/B 4.3 04:17:09 10° N 04:19:16 24° N 04:19:16 24° N
Resurs 1-4 Rocket 3.7 04:19:58 10° N 04:22:24 26° N 04:22:24 26° N
Cosmos 2315 Rocket 4.2 04:26:49 62° NNW 04:26:49 62° NNW 04:31:58 10° N
SL-16 R/B 4.3 04:30:19 19° NW 04:30:19 19° NW 04:32:00 10° NNW
Cosmos 2263 Rocket 2.7 04:27:01 10° NNW 04:38:11 10° SSE 04:31:15 51° N
ISS -0.7 04:40:53 14° E 04:40:53 14° E 04:41:26 10° E
Cosmos 2322 4.4 04:42:22 42° SSE 04:43:40 50° ESE 04:49:12 10° NNE
Lacrosse 4 Rocket 3.8 04:41:27 10° N 04:44:46 22° NE 04:48:07 10° ESE
DELTA 2 R/B (1) 4.5 04:49:49 36° SSE 04:49:49 36° SSE 04:54:46 10° E
Cosmos 1975 4.1 04:49:43 10° N 04:53:35 40° ENE 04:55:04 29° SE
ADEOS II 2.9 04:49:29 10° NNE 04:54:34 48° E 04:57:25 24° SSE
SL-08 ROCKET BODY 4.2 04:52:19 10° N 04:58:13 86° W 05:00:26 40° S
Cosmos 1777 Rocket 4.3 04:53:23 10° NNW 04:58:41 67° ENE 05:03:56 10° SSE
Cosmos 2074 Rocket 3.9 04:55:44 10° N 05:02:01 88° E 05:08:15 10° S
Cosmos 1500 3.3 05:09:39 10° N 05:13:29 72° E 05:13:39 71° ESE
CZ-4B R/B 3.4 05:08:52 10° NNE 05:14:32 73° ESE 05:18:19 21° S
Meteor 2-13 Rocket 4.4 05:09:49 10° N 05:16:00 86° E 05:22:08 10° S
Cosmos 1544 Rocket 3.4 05:13:39 10° NNW 05:18:06 72° W 05:18:15 71° WSW
MOS 1 Rocket 3.6 05:18:19 10° N 05:22:42 45° WNW 05:22:42 45° WNW
Lacrosse 5 2.3 05:24:00 42° SSW 05:24:00 42° SSW 05:27:59 10° SSE
Okean O Rocket 1.5 05:20:04 10° N 05:24:29 68° WNW 05:25:11 57° SW
Cosmos 2322 Rocket 3.3 05:24:26 27° WNW 05:24:30 27° NW 05:29:13 10° N
Cosmos 2237 4.3 05:22:40 25° SSW 05:26:06 76° ESE 05:31:52 10° NNE
SL-16 R/B 3.3 05:27:31 26° WNW 05:27:47 26° NW 05:32:30 10° N
Cosmos 2208 Rocket 4.4 05:25:01 16° S 05:29:20 66° ESE 05:34:46 10° NNE
COSMOS 2428 3.1 05:25:18 16° S 05:29:48 63° ESE 05:35:26 10° NNE
Okean-O 4.0 05:28:28 10° NNE 05:32:38 39° E 05:36:47 10° SSE
Cosmos 2184 Rocket 4.1 05:29:09 10° NNW 05:35:08 52° W 05:41:10 10° SSW
CZ-4B R/B 3.1 05:32:47 10° N 05:35:47 42° NW 05:35:47 42° NW
Cosmos 1238 Rocket 2.6 05:37:42 27° SSE 05:39:07 60° E 05:42:02 10° NNE
ERS-2 2.8 05:36:02 10° NNE 05:39:41 55° ESE 05:43:18 10° S
Cosmos 2219 Rocket 3.3 05:35:48 10° S 05:41:01 43° ESE 05:46:16 10° NE
Cosmos 1844 Rocket 3.0 05:45:46 10° NNW 05:51:21 67° ENE 05:56:52 10° SSE
Cosmos 1455 Rocket 3.6 05:48:05 10° NNW 05:52:07 36° W 05:54:00 24° SW
Thor Agena Rocket 4.2 05:49:53 10° SSE 05:54:50 58° ENE 05:59:48 10° N
Cosmos 1025 Rocket 4.2 05:50:49 10° SSE 05:54:59 46° E 05:59:12 10° NNE
Cosmos 2360 Rocket 2.8 05:54:36 25° WSW 05:57:01 36° WNW 06:02:12 10° N
Cosmos 962 Rocket 4.5 05:51:18 10° N 05:57:35 89° W 06:03:55 10° S
Cosmos 2278 Rocket 4.0 05:53:43 10° N 05:58:51 34° ENE 06:03:57 10° ESE
Tiangong 2 1.3 05:57:42 31° WNW 05:59:00 64° N 06:02:07 10° E
USA 215 3.6 05:53:01 10° SSE 05:59:08 41° SW 06:05:17 10° WNW
Meteor 2-4 Rocket 4.0 05:54:13 10° S 05:59:48 69° E 06:05:16 10° NNE
Gblst 52 Del rocket 4.4 05:56:20 10° NW 06:02:07 82° NE 06:08:40 10° SE
Cosmos 405 Rocket 4.4 05:59:59 10° SSE 06:03:46 38° E 06:07:32 10° NNE
Cosmos 2237 Rocket 3.6 05:59:13 10° S 06:04:27 39° ESE 06:09:42 10° NE
USA 229 DEB 4.1 06:00:12 10° SSW 06:06:56 66° ESE 06:13:48 10° NE
USA 229 4.1 06:00:19 10° SSW 06:07:02 66° ESE 06:13:54 10° NE
USA 116 3.8 06:03:25 10° S 06:07:24 70° WSW 06:12:00 10° NNW
CENTAUR R/B 4.4 06:04:02 10° WNW 06:08:00 17° NNW 06:12:28 10° NNE
Cosmos 2154 Rocket 4.1 06:02:37 10° NNW 06:08:38 54° W 06:14:37 10° SSW
Cosmos 1570 Rocket 4.2 06:04:36 15° SW 06:08:49 50° WNW 06:13:54 10° N
Cosmos 1340 4.0 06:09:45 20° W 06:10:11 21° WNW 06:13:07 10° NNW
Meteor 1-31 Rocket 2.6 06:08:04 10° N 06:11:52 67° WNW 06:15:38 10° SSW
ISS -2.9 06:13:35 22° W 06:14:50 29° SW 06:17:45 10° SSE
Cosmos 2263 Rocket 4.2 06:20:17 - SW 06:20:17 - SW 06:12:42 10° WNW
Cosmos 1743 3.1 06:12:11 10° NNW 06:15:51 41° W 06:19:29 10° SSW
Cosmos 1666 2.6 06:12:15 10° NNW 06:16:06 73° W 06:19:58 10° S
Cosmos 1898 Rocket 3.8 06:12:41 10° NNW 06:17:54 71° ENE 06:23:03 10° SSE
Cosmos 2333 Rocket 2.5 06:12:34 10° SSW 06:18:13 71° ESE 06:23:56 10° NNE
Meteor 2-19 Rocket 4.4 06:12:54 10° N 06:19:00 75° W 06:25:02 10° S
Cosmos 468 Rocket 4.1 06:17:08 10° SSW 06:22:18 83° ESE 06:27:32 10° NNE
Lacrosse 4 Rocket 2.0 06:19:43 10° NW 06:23:31 34° WSW 06:27:24 10° S
Okean 1-7 Rocket 3.6 06:19:19 10° SSW 06:23:48 63° W 06:28:17 10° N
ATLAS 5 CENTAUR R/B 3.3 06:19:25 10° NNW 06:25:15 52° NE 06:31:34 10° SE
SJ-6F 4.3 06:21:13 10° N 06:25:18 72° WNW 06:29:20 10° SSW
SKYMED 2 3.9 06:22:13 10° SSE 06:26:31 71° ENE 06:30:52 10° N
Cosmos 2181 Rocket 4.0 06:21:20 10° SSW 06:27:27 61° W 06:33:40 10° N
BREEZE-M DEB (TANK) 4.1 06:29:16 12° WSW 06:33:11 73° NNW 06:52:47 10° ENE
ADEOS II 3.4 06:30:02 10° NNW 06:33:56 22° WNW 06:37:50 10° WSW
SL-8 Rocket 4.0 06:28:23 10° N 06:34:36 76° W 06:40:45 10° S
DELTA 2 R/B (1) 3.7 06:30:36 11° WSW 06:35:50 76° S 06:41:23 10° E
Cosmos 858 Rocket 4.5 06:37:58 10° NNW 06:43:16 79° WSW 06:48:30 10° SSE
Cosmos 2341 Rocket 4.5 06:38:57 10° NNW 06:44:37 38° W 06:50:15 10° SSW
Cosmos 371 Rocket 4.4 06:41:48 10° S 06:46:28 50° ESE 06:51:11 10° NNE
Cosmos 332 Rocket 4.2 06:43:45 10° S 06:48:37 72° ESE 06:53:31 10° NNE
Cosmos 1606 Rocket 3.6 06:44:38 10° NNW 06:49:05 69° W 06:53:31 10° S
NOAA 6 4.2 06:44:36 10° N 06:49:36 55° WNW 06:54:34 10° SSW
Cosmos 1844 3.9 06:44:29 10° NNW 06:50:05 53° WSW 06:55:35 10° S
Cosmos 1937 Rocket 3.5 06:46:32 10° NNW 06:51:53 80° WSW 06:57:10 10° SSE
BREEZE M DEB (TANK) 2.8 06:45:48 10° WNW 06:54:08 86° NE 06:57:06 10° ESE
